Terminal Aerodrome Forecast
Issued by NWS Billings, MT

Home | Current Version | Previous Version | Graphics & Text | Print | Product List | Glossary On
Versions: 1 2 3 4 5 6 7 8 9 10 11 12 13 14 15 16 17 18 19 20 21 22 23 24 25 26 27 28 29 30 31 32
432
FTUS45 KBYZ 232336
TAFMLS
TAF
KMLS 232336Z 2400/2424 25015KT P6SM SCT200 WS011/24041KT
     FM240800 30021G30KT P6SM -RA SCT030 BKN040
     FM241000 27015G25KT P6SM SKC=

USA.gov is the U.S. government's official web portal to all federal, state and local government web resources and services.